Time,TemperatureF,DewpointF,PressureIn,WindDirection,WindDirectionDegrees,WindSpeedMPH,WindSpeedGustMPH,Humidity,HourlyPrecipIn,Conditions,Clouds,dailyrainin,SoftwareType,DateUTC
2013-02-07 00:03:00,43.2,39.9,30.07,WSW,254,0.0,0.0,88,0.00,,---,0.00,VWS V14.01,2013-02-07 08:03:00,
2013-02-07 00:08:00,43.1,39.8,30.07,WSW,250,0.0,0.0,88,0.00,,---,0.00,VWS V14.01,2013-02-07 08:08:00,
2013-02-07 00:13:00,43.1,39.8,30.07,WSW,242,0.0,0.0,88,0.00,,---,0.00,VWS V14.01,2013-02-07 08:13:00,
2013-02-07 00:18:00,43.1,39.8,30.07,WSW,246,0.0,0.0,88,0.00,,---,0.00,VWS V14.01,2013-02-07 08:18:00,
2013-02-07 00:23:00,43.1,39.8,30.07,SSW,213,1.0,0.0,88,0.00,,---,0.00,VWS V14.01,2013-02-07 08:23:00,
2013-02-07 00:28:00,43.1,39.8,30.07,SSW,213,0.0,0.0,88,0.00,,---,0.00,VWS V14.01,2013-02-07 08:28:00,
2013-02-07 00:33:00,43.1,39.5,30.07,SSW,213,0.0,0.0,87,0.00,,---,0.00,VWS V14.01,2013-02-07 08:33:00,
2013-02-07 00:38:00,43.0,39.4,30.06,SSW,213,0.0,0.0,87,0.00,,---,0.00,VWS V14.01,2013-02-07 08:38:00,
2013-02-07 00:44:00,43.0,39.4,30.06,SSW,211,0.0,0.0,87,0.00,,---,0.00,VWS V14.01,2013-02-07 08:44:00,
2013-02-07 00:48:00,42.9,39.3,30.06,WSW,240,0.0,0.0,87,0.00,,---,0.00,VWS V14.01,2013-02-07 08:48:00,
2013-02-07 00:54:00,42.8,39.2,30.06,WSW,240,0.0,0.0,87,0.00,,---,0.00,VWS V14.01,2013-02-07 08:54:00,
2013-02-07 00:59:00,42.8,39.2,30.06,WSW,240,0.0,0.0,87,0.00,,---,0.00,VWS V14.01,2013-02-07 08:59:00,
2013-02-07 01:04:00,42.9,39.3,30.06,SSW,213,0.0,0.0,87,0.00,,---,0.00,VWS V14.01,2013-02-07 09:04:00,
2013-02-07 01:09:00,42.9,39.3,30.06,SSW,213,0.0,0.0,87,0.00,,---,0.00,VWS V14.01,2013-02-07 09:09:00,
2013-02-07 01:14:00,43.0,39.4,30.06,SSW,213,0.0,0.0,87,0.00,,---,0.00,VWS V14.01,2013-02-07 09:14:00,
2013-02-07 01:19:00,43.1,39.5,30.06,SW,236,0.0,0.0,87,0.00,,---,0.00,VWS V14.01,2013-02-07 09:19:00,
2013-02-07 01:24:00,43.3,39.7,30.06,SW,236,0.0,0.0,87,0.00,,---,0.00,VWS V14.01,2013-02-07 09:24:00,
2013-02-07 01:29:00,43.5,39.9,30.06,SSW,208,0.0,0.0,87,0.00,,---,0.00,VWS V14.01,2013-02-07 09:29:00,
2013-02-07 01:34:00,43.7,40.1,30.05,SSW,212,0.0,0.0,87,0.00,,---,0.00,VWS V14.01,2013-02-07 09:34:00,
2013-02-07 01:39:00,43.9,40.0,30.06,SSE,156,0.0,0.0,86,0.00,,---,0.00,VWS V14.01,2013-02-07 09:39:00,
2013-02-07 01:44:00,44.1,40.2,30.06,South,184,0.0,0.0,86,0.00,,---,0.00,VWS V14.01,2013-02-07 09:44:00,
2013-02-07 01:49:00,44.1,40.2,30.05,South,184,0.0,0.0,86,0.00,,---,0.00,VWS V14.01,2013-02-07 09:49:00,
2013-02-07 01:54:00,44.2,40.0,30.05,SSW,192,0.0,0.0,85,0.00,,---,0.00,VWS V14.01,2013-02-07 09:54:00,
2013-02-07 01:59:00,44.2,40.3,30.05,ESE,104,0.0,0.0,86,0.00,,---,0.00,VWS V14.01,2013-02-07 09:59:00,
2013-02-07 02:04:00,44.2,40.3,30.05,WSW,239,0.0,0.0,86,0.00,,---,0.00,VWS V14.01,2013-02-07 10:04:00,
2013-02-07 02:09:00,44.2,40.0,30.06,WSW,239,0.0,0.0,85,0.00,,---,0.00,VWS V14.01,2013-02-07 10:09:00,
2013-02-07 02:14:00,44.2,40.0,30.06,WSW,239,0.0,0.0,85,0.00,,---,0.00,VWS V14.01,2013-02-07 10:14:00,
2013-02-07 02:19:00,44.1,39.9,30.06,WSW,239,0.0,0.0,85,0.00,,---,0.00,VWS V14.01,2013-02-07 10:19:00,
2013-02-07 02:24:00,44.0,39.8,30.05,WSW,239,0.0,0.0,85,0.00,,---,0.00,VWS V14.01,2013-02-07 10:24:00,
2013-02-07 02:29:00,43.9,39.7,30.05,WSW,239,0.0,0.0,85,0.00,,---,0.00,VWS V14.01,2013-02-07 10:29:00,
2013-02-07 02:34:00,43.8,39.9,30.05,WSW,239,0.0,0.0,86,0.00,,---,0.00,VWS V14.01,2013-02-07 10:34:00,
2013-02-07 02:39:00,43.7,39.8,30.05,WSW,239,0.0,0.0,86,0.00,,---,0.00,VWS V14.01,2013-02-07 10:39:00,
2013-02-07 02:44:00,43.7,39.8,30.05,WSW,239,0.0,0.0,86,0.00,,---,0.00,VWS V14.01,2013-02-07 10:44:00,
2013-02-07 02:49:00,43.7,40.1,30.05,West,263,0.0,0.0,87,0.00,,---,0.00,VWS V14.01,2013-02-07 10:49:00,
2013-02-07 02:54:00,43.7,40.1,30.05,West,263,0.0,0.0,87,0.00,,---,0.00,VWS V14.01,2013-02-07 10:54:00,
2013-02-07 02:59:00,43.8,39.9,30.05,West,267,0.0,0.0,86,0.00,,---,0.00,VWS V14.01,2013-02-07 10:59:00,
2013-02-07 03:04:00,43.8,40.2,30.05,SSE,149,0.0,0.0,87,0.00,,---,0.00,VWS V14.01,2013-02-07 11:04:00,
2013-02-07 03:09:00,43.8,39.9,30.05,SSW,196,0.0,0.0,86,0.00,,---,0.00,VWS V14.01,2013-02-07 11:09:00,
2013-02-07 03:14:00,43.8,39.9,30.04,SW,217,0.0,0.0,86,0.00,,---,0.00,VWS V14.01,2013-02-07 11:14:00,
2013-02-07 03:20:00,43.8,39.9,30.05,South,185,0.0,0.0,86,0.00,,---,0.00,VWS V14.01,2013-02-07 11:20:00,
2013-02-07 03:25:00,43.7,39.8,30.05,ENE,60,0.0,0.0,86,0.00,,---,0.00,VWS V14.01,2013-02-07 11:25:00,
2013-02-07 03:30:00,43.6,39.7,30.05,South,184,0.0,0.0,86,0.00,,---,0.00,VWS V14.01,2013-02-07 11:30:00,
2013-02-07 03:35:00,43.5,39.6,30.04,South,184,0.0,0.0,86,0.00,,---,0.00,VWS V14.01,2013-02-07 11:35:00,
2013-02-07 03:40:00,43.2,39.3,30.04,South,184,1.0,0.0,86,0.00,,---,0.00,VWS V14.01,2013-02-07 11:40:00,
2013-02-07 03:45:00,43.0,39.4,30.04,South,184,0.0,0.0,87,0.00,,---,0.00,VWS V14.01,2013-02-07 11:45:00,
2013-02-07 03:50:00,42.8,39.2,30.04,ENE,78,0.0,0.0,87,0.00,,---,0.00,VWS V14.01,2013-02-07 11:50:00,
2013-02-07 03:55:00,42.7,39.1,30.04,ENE,78,0.0,0.0,87,0.00,,---,0.00,VWS V14.01,2013-02-07 11:55:00,
2013-02-07 04:00:00,42.5,39.2,30.04,ENE,78,0.0,0.0,88,0.00,,---,0.00,VWS V14.01,2013-02-07 12:00:00,
2013-02-07 04:05:00,42.4,39.1,30.04,ENE,78,0.0,0.0,88,0.00,,---,0.00,VWS V14.01,2013-02-07 12:05:00,
2013-02-07 04:10:00,42.3,39.0,30.04,ENE,78,0.0,0.0,88,0.00,,---,0.00,VWS V14.01,2013-02-07 12:10:00,
2013-02-07 04:15:00,42.3,39.0,30.04,South,169,0.0,0.0,88,0.00,,---,0.00,VWS V14.01,2013-02-07 12:15:00,
2013-02-07 04:20:00,42.2,38.9,30.04,South,169,0.0,0.0,88,0.00,,---,0.00,VWS V14.01,2013-02-07 12:20:00,
2013-02-07 04:25:00,42.2,39.2,30.04,South,169,0.0,0.0,89,0.00,,---,0.00,VWS V14.01,2013-02-07 12:25:00,
2013-02-07 04:30:00,42.1,39.1,30.04,South,169,0.0,0.0,89,0.00,,---,0.00,VWS V14.01,2013-02-07 12:30:00,
2013-02-07 04:35:00,42.1,39.1,30.04,South,169,0.0,0.0,89,0.00,,---,0.00,VWS V14.01,2013-02-07 12:35:00,
2013-02-07 04:41:00,42.2,39.5,30.04,South,169,0.0,0.0,90,0.00,,---,0.00,VWS V14.01,2013-02-07 12:41:00,
2013-02-07 04:46:00,42.2,39.5,30.04,South,169,0.0,0.0,90,0.00,,---,0.00,VWS V14.01,2013-02-07 12:46:00,
2013-02-07 04:51:00,42.3,39.3,30.04,South,169,0.0,0.0,89,0.00,,---,0.00,VWS V14.01,2013-02-07 12:51:00,
2013-02-07 04:56:00,42.3,39.3,30.04,South,169,0.0,0.0,89,0.00,,---,0.00,VWS V14.01,2013-02-07 12:56:00,
2013-02-07 05:01:00,42.3,39.3,30.03,South,169,0.0,0.0,89,0.00,,---,0.00,VWS V14.01,2013-02-07 13:01:00,
2013-02-07 05:06:00,42.3,39.3,30.04,South,173,1.0,0.0,89,0.00,,---,0.00,VWS V14.01,2013-02-07 13:06:00,
2013-02-07 05:11:00,42.4,39.4,30.03,South,173,0.0,0.0,89,0.00,,---,0.00,VWS V14.01,2013-02-07 13:11:00,
2013-02-07 05:16:00,42.5,39.5,30.04,South,179,0.0,0.0,89,0.00,,---,0.00,VWS V14.01,2013-02-07 13:16:00,
2013-02-07 05:21:00,42.5,39.2,30.04,South,179,0.0,0.0,88,0.00,,---,0.00,VWS V14.01,2013-02-07 13:21:00,
2013-02-07 05:26:00,42.5,39.2,30.03,South,179,0.0,0.0,88,0.00,,---,0.00,VWS V14.01,2013-02-07 13:26:00,
2013-02-07 05:31:00,42.6,39.3,30.03,South,179,0.0,0.0,88,0.00,,---,0.00,VWS V14.01,2013-02-07 13:31:00,
2013-02-07 05:36:00,42.6,39.3,30.03,South,179,0.0,0.0,88,0.00,,---,0.00,VWS V14.01,2013-02-07 13:36:00,
2013-02-07 05:41:00,42.7,39.4,30.03,WSW,242,1.0,0.0,88,0.00,,---,0.00,VWS V14.01,2013-02-07 13:41:00,
2013-02-07 05:46:00,42.8,39.5,30.02,WSW,237,0.0,0.0,88,0.00,,---,0.00,VWS V14.01,2013-02-07 13:46:00,
2013-02-07 05:52:00,42.9,39.6,30.03,SW,232,0.0,0.0,88,0.00,,---,0.00,VWS V14.01,2013-02-07 13:52:00,
2013-02-07 05:57:00,42.9,39.6,30.03,WSW,241,0.0,0.0,88,0.00,,---,0.00,VWS V14.01,2013-02-07 13:57:00,
2013-02-07 06:02:00,43.0,39.4,30.03,WSW,241,0.0,0.0,87,0.00,,---,0.00,VWS V14.01,2013-02-07 14:02:00,
2013-02-07 06:07:00,43.1,39.8,30.03,WSW,241,0.0,0.0,88,0.00,,---,0.00,VWS V14.01,2013-02-07 14:07:00,
2013-02-07 06:12:00,43.1,39.5,30.03,WSW,241,0.0,0.0,87,0.00,,---,0.00,VWS V14.01,2013-02-07 14:12:00,
2013-02-07 06:17:00,43.1,39.5,30.03,WSW,241,0.0,0.0,87,0.00,,---,0.00,VWS V14.01,2013-02-07 14:17:00,
2013-02-07 06:22:00,43.2,39.6,30.03,WSW,241,0.0,0.0,87,0.00,,---,0.00,VWS V14.01,2013-02-07 14:22:00,
2013-02-07 06:27:00,43.3,39.7,30.03,SW,222,0.0,0.0,87,0.00,,---,0.00,VWS V14.01,2013-02-07 14:27:00,
2013-02-07 06:32:00,43.3,39.7,30.03,SW,222,0.0,0.0,87,0.00,,---,0.00,VWS V14.01,2013-02-07 14:32:00,
2013-02-07 06:37:00,43.4,39.8,30.03,SW,222,0.0,0.0,87,0.00,,---,0.00,VWS V14.01,2013-02-07 14:37:00,
2013-02-07 06:42:00,43.4,39.8,30.03,SW,222,0.0,0.0,87,0.00,,---,0.00,VWS V14.01,2013-02-07 14:42:00,
2013-02-07 06:47:00,43.4,39.8,30.03,SW,222,0.0,0.0,87,0.00,,---,0.00,VWS V14.01,2013-02-07 14:47:00,
2013-02-07 06:52:00,43.4,39.8,30.03,SW,222,0.0,0.0,87,0.00,,---,0.00,VWS V14.01,2013-02-07 14:52:00,
2013-02-07 06:57:00,43.5,39.9,30.02,SW,219,0.0,0.0,87,0.00,,---,0.00,VWS V14.01,2013-02-07 14:57:00,
2013-02-07 07:03:00,43.6,39.7,30.02,SW,219,0.0,0.0,86,0.00,,---,0.00,VWS V14.01,2013-02-07 15:03:00,
2013-02-07 07:08:00,43.5,39.6,30.02,SW,219,0.0,0.0,86,0.00,,---,0.00,VWS V14.01,2013-02-07 15:08:00,
2013-02-07 07:13:00,43.5,39.6,30.02,SW,219,0.0,0.0,86,0.00,,---,0.00,VWS V14.01,2013-02-07 15:13:00,
2013-02-07 07:18:00,43.4,39.5,30.02,SW,219,0.0,0.0,86,0.00,,---,0.00,VWS V14.01,2013-02-07 15:18:00,
2013-02-07 07:23:00,43.4,39.5,30.02,SW,219,0.0,0.0,86,0.00,,---,0.00,VWS V14.01,2013-02-07 15:23:00,
2013-02-07 07:28:00,43.4,39.5,30.02,SW,219,0.0,0.0,86,0.00,,---,0.00,VWS V14.01,2013-02-07 15:28:00,
2013-02-07 07:33:00,43.3,39.4,30.02,SW,219,0.0,0.0,86,0.00,,---,0.00,VWS V14.01,2013-02-07 15:33:00,
2013-02-07 07:38:00,43.3,39.4,30.02,SW,219,0.0,0.0,86,0.00,,---,0.00,VWS V14.01,2013-02-07 15:38:00,
2013-02-07 07:43:00,43.3,39.4,30.02,SW,219,0.0,0.0,86,0.00,,---,0.00,VWS V14.01,2013-02-07 15:43:00,
2013-02-07 07:48:00,43.3,39.4,30.02,SW,219,0.0,0.0,86,0.00,,---,0.00,VWS V14.01,2013-02-07 15:48:00,
2013-02-07 07:53:00,43.4,39.5,30.02,SW,219,0.0,0.0,86,0.00,,---,0.00,VWS V14.01,2013-02-07 15:53:00,
2013-02-07 07:58:00,43.5,39.6,30.02,SW,219,0.0,0.0,86,0.00,,---,0.00,VWS V14.01,2013-02-07 15:58:00,
2013-02-07 08:04:00,43.7,40.1,30.02,SW,219,0.0,0.0,87,0.00,,---,0.00,VWS V14.01,2013-02-07 16:04:00,
2013-02-07 08:09:00,43.8,39.9,30.03,SW,219,0.0,0.0,86,0.00,,---,0.00,VWS V14.01,2013-02-07 16:09:00,
2013-02-07 08:14:00,44.0,40.1,30.02,SW,219,0.0,0.0,86,0.00,,---,0.00,VWS V14.01,2013-02-07 16:14:00,
2013-02-07 08:19:00,44.2,40.3,30.03,SW,219,0.0,0.0,86,0.00,,---,0.00,VWS V14.01,2013-02-07 16:19:00,
2013-02-07 08:24:00,44.4,40.2,30.02,SW,219,0.0,0.0,85,0.00,,---,0.00,VWS V14.01,2013-02-07 16:24:00,
2013-02-07 08:29:00,44.6,40.4,30.02,SW,219,0.0,0.0,85,0.00,,---,0.00,VWS V14.01,2013-02-07 16:29:00,
2013-02-07 08:34:00,44.8,40.6,30.02,SW,220,0.0,0.0,85,0.00,,---,0.00,VWS V14.01,2013-02-07 16:34:00,
2013-02-07 08:39:00,45.1,40.6,30.02,SW,219,0.0,0.0,84,0.00,,---,0.00,VWS V14.01,2013-02-07 16:39:00,
2013-02-07 08:44:00,45.3,40.8,30.02,SW,219,0.0,0.0,84,0.00,,---,0.00,VWS V14.01,2013-02-07 16:44:00,
2013-02-07 08:49:00,45.6,40.4,30.02,SW,219,0.0,0.0,82,0.00,,---,0.00,VWS V14.01,2013-02-07 16:49:00,
2013-02-07 08:54:00,45.8,40.3,30.02,WSW,240,0.0,0.0,81,0.00,,---,0.00,VWS V14.01,2013-02-07 16:54:00,
2013-02-07 08:59:00,46.0,40.5,30.02,WSW,239,0.0,0.0,81,0.00,,---,0.00,VWS V14.01,2013-02-07 16:59:00,
2013-02-07 09:04:00,46.2,40.4,30.02,WSW,240,0.0,0.0,80,0.00,,---,0.00,VWS V14.01,2013-02-07 17:04:00,
2013-02-07 09:09:00,46.3,40.2,30.02,SW,226,0.0,0.0,79,0.00,,---,0.00,VWS V14.01,2013-02-07 17:09:00,
2013-02-07 09:14:00,46.3,40.2,30.03,SW,226,0.0,0.0,79,0.00,,---,0.00,VWS V14.01,2013-02-07 17:14:00,
2013-02-07 09:19:00,46.4,40.6,30.03,SW,226,0.0,0.0,80,0.00,,---,0.00,VWS V14.01,2013-02-07 17:19:00,
2013-02-07 09:24:00,46.4,40.6,30.03,SW,226,0.0,0.0,80,0.00,,---,0.00,VWS V14.01,2013-02-07 17:24:00,
2013-02-07 09:30:00,46.5,40.3,30.02,SW,226,0.0,0.0,79,0.00,,---,0.00,VWS V14.01,2013-02-07 17:30:00,
2013-02-07 09:35:00,46.5,40.7,30.02,SW,226,0.0,0.0,80,0.00,,---,0.00,VWS V14.01,2013-02-07 17:35:00,
2013-02-07 09:40:00,46.7,41.2,30.02,SW,226,0.0,0.0,81,0.00,,---,0.00,VWS V14.01,2013-02-07 17:40:00,
2013-02-07 09:45:00,46.8,40.6,30.02,SW,226,0.0,0.0,79,0.00,,---,0.00,VWS V14.01,2013-02-07 17:45:00,
2013-02-07 09:50:00,47.0,40.8,30.02,SW,218,0.0,0.0,79,0.00,,---,0.00,VWS V14.01,2013-02-07 17:50:00,
2013-02-07 09:55:00,47.3,40.8,30.02,WNW,284,0.0,0.0,78,0.00,,---,0.00,VWS V14.01,2013-02-07 17:55:00,
2013-02-07 10:00:00,47.5,41.0,30.02,East,82,0.0,0.0,78,0.00,,---,0.00,VWS V14.01,2013-02-07 18:00:00,
2013-02-07 10:05:00,47.8,41.3,30.02,East,82,0.0,0.0,78,0.00,,---,0.00,VWS V14.01,2013-02-07 18:05:00,
2013-02-07 10:10:00,48.0,41.5,30.02,West,277,0.0,0.0,78,0.00,,---,0.00,VWS V14.01,2013-02-07 18:10:00,
2013-02-07 10:15:00,48.3,41.1,30.02,SSW,196,2.0,0.0,76,0.00,,---,0.00,VWS V14.01,2013-02-07 18:15:00,
2013-02-07 10:20:00,48.5,41.0,30.02,NE,55,0.0,0.0,75,0.00,,---,0.00,VWS V14.01,2013-02-07 18:20:00,
2013-02-07 10:25:00,48.6,41.0,30.02,ENE,61,0.0,0.0,75,0.00,,---,0.00,VWS V14.01,2013-02-07 18:25:00,
2013-02-07 10:30:00,48.7,41.5,30.02,WNW,286,1.0,0.0,76,0.00,,---,0.00,VWS V14.01,2013-02-07 18:30:00,
2013-02-07 10:35:00,48.7,42.2,30.02,WNW,286,0.0,0.0,78,0.00,,---,0.00,VWS V14.01,2013-02-07 18:35:00,
2013-02-07 10:41:00,48.8,42.6,30.02,NW,309,1.0,0.0,79,0.00,,---,0.00,VWS V14.01,2013-02-07 18:41:00,
2013-02-07 10:46:00,48.8,42.3,30.02,West,275,0.0,0.0,78,0.00,,---,0.00,VWS V14.01,2013-02-07 18:46:00,
2013-02-07 10:51:00,48.8,42.6,30.02,WNW,289,1.0,0.0,79,0.00,,---,0.00,VWS V14.01,2013-02-07 18:51:00,
2013-02-07 10:56:00,48.9,42.3,30.02,West,266,4.0,0.0,78,0.00,,---,0.00,VWS V14.01,2013-02-07 18:56:00,
2013-02-07 11:01:00,49.0,42.5,30.02,NE,51,2.0,0.0,78,0.00,,---,0.00,VWS V14.01,2013-02-07 19:01:00,
2013-02-07 11:06:00,48.9,42.3,30.02,NNW,343,2.0,0.0,78,0.00,,---,0.00,VWS V14.01,2013-02-07 19:06:00,
2013-02-07 11:11:00,48.8,42.3,30.02,NW,319,0.0,0.0,78,0.00,,---,0.00,VWS V14.01,2013-02-07 19:11:00,
2013-02-07 11:16:00,48.7,43.1,30.02,NNE,27,2.0,0.0,81,0.00,,---,0.00,VWS V14.01,2013-02-07 19:16:00,
2013-02-07 11:21:00,48.5,43.0,30.02,NW,319,2.0,0.0,81,0.00,,---,0.00,VWS V14.01,2013-02-07 19:21:00,
2013-02-07 11:26:00,48.3,43.4,30.02,SE,146,1.0,0.0,83,0.01,,---,0.01,VWS V14.01,2013-02-07 19:26:00,
2013-02-07 11:31:00,48.1,43.8,30.02,West,279,4.0,0.0,85,0.01,,---,0.01,VWS V14.01,2013-02-07 19:31:00,
2013-02-07 11:36:00,47.9,43.6,30.01,NNW,336,1.0,0.0,85,0.01,,---,0.01,VWS V14.01,2013-02-07 19:36:00,
2013-02-07 11:41:00,47.7,43.1,30.01,South,174,1.0,0.0,84,0.01,,---,0.01,VWS V14.01,2013-02-07 19:41:00,
2013-02-07 11:46:00,47.6,43.3,30.01,WNW,290,1.0,0.0,85,0.01,,---,0.01,VWS V14.01,2013-02-07 19:46:00,
2013-02-07 11:51:00,47.6,43.3,30.01,SSW,197,0.0,0.0,85,0.01,,---,0.01,VWS V14.01,2013-02-07 19:51:00,
2013-02-07 11:56:00,47.6,43.0,30.01,NNW,335,2.0,0.0,84,0.01,,---,0.01,VWS V14.01,2013-02-07 19:56:00,
2013-02-07 12:01:00,47.7,43.1,30.00,WNW,286,2.0,0.0,84,0.02,,---,0.02,VWS V14.01,2013-02-07 20:01:00,
2013-02-07 12:06:00,47.7,43.4,30.00,South,190,1.0,0.0,85,0.02,,---,0.02,VWS V14.01,2013-02-07 20:06:00,
2013-02-07 12:12:00,47.6,43.3,30.00,WSW,240,0.0,0.0,85,0.02,,---,0.02,VWS V14.01,2013-02-07 20:12:00,
2013-02-07 12:17:00,47.5,43.5,29.99,SSE,153,0.0,0.0,86,0.02,,---,0.02,VWS V14.01,2013-02-07 20:17:00,
2013-02-07 12:22:00,47.5,43.5,29.99,SSW,195,1.0,0.0,86,0.02,,---,0.02,VWS V14.01,2013-02-07 20:22:00,
2013-02-07 12:27:00,47.8,43.5,29.99,West,260,2.0,0.0,85,0.02,,---,0.02,VWS V14.01,2013-02-07 20:27:00,
2013-02-07 12:32:00,48.3,44.0,29.98,SSE,161,0.0,0.0,85,0.01,,---,0.02,VWS V14.01,2013-02-07 20:32:00,
2013-02-07 12:37:00,48.6,44.0,29.99,SSE,164,1.0,0.0,84,0.01,,---,0.02,VWS V14.01,2013-02-07 20:37:00,
2013-02-07 12:42:00,48.9,43.7,29.98,NW,311,3.0,0.0,82,0.01,,---,0.02,VWS V14.01,2013-02-07 20:42:00,
2013-02-07 12:47:00,49.1,43.2,29.98,NW,317,0.0,0.0,80,0.01,,---,0.02,VWS V14.01,2013-02-07 20:47:00,
2013-02-07 12:52:00,49.2,43.3,29.98,WNW,300,4.0,0.0,80,0.01,,---,0.02,VWS V14.01,2013-02-07 20:52:00,
2013-02-07 12:57:00,49.5,42.6,29.98,WSW,248,0.0,0.0,77,0.01,,---,0.02,VWS V14.01,2013-02-07 20:57:00,
2013-02-07 13:02:00,49.8,42.9,29.97,West,265,0.0,0.0,77,0.00,,---,0.02,VWS V14.01,2013-02-07 21:02:00,
2013-02-07 13:07:00,50.0,42.4,29.97,West,269,2.0,0.0,75,0.00,,---,0.02,VWS V14.01,2013-02-07 21:07:00,
2013-02-07 13:12:00,50.1,42.2,29.97,NNW,328,0.0,0.0,74,0.00,,---,0.02,VWS V14.01,2013-02-07 21:12:00,
2013-02-07 13:17:00,50.2,42.2,29.97,WSW,247,0.0,0.0,74,0.00,,---,0.02,VWS V14.01,2013-02-07 21:17:00,
2013-02-07 13:22:00,50.4,43.1,29.97,NNW,329,4.0,0.0,76,0.00,,---,0.02,VWS V14.01,2013-02-07 21:22:00,
2013-02-07 13:27:00,50.4,42.8,29.97,South,190,0.0,0.0,75,0.00,,---,0.02,VWS V14.01,2013-02-07 21:27:00,
2013-02-07 13:32:00,50.3,42.3,29.97,WNW,300,3.0,0.0,74,0.00,,---,0.02,VWS V14.01,2013-02-07 21:32:00,
2013-02-07 13:37:00,50.2,42.2,29.97,East,97,2.0,0.0,74,0.00,,---,0.02,VWS V14.01,2013-02-07 21:37:00,
2013-02-07 13:42:00,50.1,42.5,29.97,SSE,166,0.0,0.0,75,0.00,,---,0.02,VWS V14.01,2013-02-07 21:42:00,
2013-02-07 13:48:00,50.2,42.2,29.97,West,261,0.0,0.0,74,0.00,,---,0.02,VWS V14.01,2013-02-07 21:48:00,
2013-02-07 13:53:00,50.1,42.5,29.96,WSW,238,2.0,0.0,75,0.00,,---,0.02,VWS V14.01,2013-02-07 21:53:00,
2013-02-07 13:58:00,50.4,43.1,29.96,SSW,203,1.0,0.0,76,0.00,,---,0.02,VWS V14.01,2013-02-07 21:58:00,
2013-02-07 14:03:00,51.2,43.9,29.96,SSW,209,1.0,0.0,76,0.00,,---,0.02,VWS V14.01,2013-02-07 22:03:00,
2013-02-07 14:08:00,51.9,43.9,29.96,WNW,294,0.0,0.0,74,0.00,,---,0.02,VWS V14.01,2013-02-07 22:08:00,
2013-02-07 14:13:00,53.2,44.4,29.96,North,9,3.0,0.0,72,0.00,,---,0.02,VWS V14.01,2013-02-07 22:13:00,
2013-02-07 14:18:00,53.9,44.0,29.96,NNW,338,3.0,0.0,69,0.00,,---,0.02,VWS V14.01,2013-02-07 22:18:00,
2013-02-07 14:23:00,53.4,43.1,29.95,WNW,302,2.0,0.0,68,0.00,,---,0.02,VWS V14.01,2013-02-07 22:23:00,
2013-02-07 14:28:00,52.8,43.3,29.95,North,9,0.0,0.0,70,0.00,,---,0.02,VWS V14.01,2013-02-07 22:28:00,
2013-02-07 14:33:00,52.3,43.2,29.95,WNW,303,0.0,0.0,71,0.00,,---,0.02,VWS V14.01,2013-02-07 22:33:00,
2013-02-07 14:38:00,52.0,42.9,29.95,NNW,341,0.0,0.0,71,0.00,,---,0.02,VWS V14.01,2013-02-07 22:38:00,
2013-02-07 14:43:00,51.7,42.2,29.95,West,259,0.0,0.0,70,0.00,,---,0.02,VWS V14.01,2013-02-07 22:43:00,
2013-02-07 14:48:00,51.4,42.0,29.95,SSW,207,0.0,0.0,70,0.00,,---,0.02,VWS V14.01,2013-02-07 22:48:00,
2013-02-07 14:54:00,51.1,42.0,29.95,SSW,207,1.0,0.0,71,0.00,,---,0.02,VWS V14.01,2013-02-07 22:54:00,
2013-02-07 14:59:00,50.9,41.8,29.94,East,99,1.0,0.0,71,0.00,,---,0.02,VWS V14.01,2013-02-07 22:59:00,
2013-02-07 15:04:00,50.9,41.1,29.94,SW,214,0.0,0.0,69,0.00,,---,0.02,VWS V14.01,2013-02-07 23:04:00,
2013-02-07 15:09:00,50.8,41.0,29.94,SSE,163,0.0,0.0,69,0.00,,---,0.02,VWS V14.01,2013-02-07 23:09:00,
2013-02-07 15:14:00,50.8,41.4,29.94,North,355,0.0,0.0,70,0.00,,---,0.02,VWS V14.01,2013-02-07 23:14:00,
2013-02-07 15:19:00,50.7,41.7,29.94,West,269,0.0,0.0,71,0.00,,---,0.02,VWS V14.01,2013-02-07 23:19:00,
2013-02-07 15:24:00,50.7,41.7,29.94,North,355,1.0,0.0,71,0.00,,---,0.02,VWS V14.01,2013-02-07 23:24:00,
2013-02-07 15:29:00,50.8,41.8,29.94,North,355,3.0,0.0,71,0.00,,---,0.02,VWS V14.01,2013-02-07 23:29:00,
2013-02-07 15:34:00,50.9,42.2,29.94,NNW,338,0.0,0.0,72,0.00,,---,0.02,VWS V14.01,2013-02-07 23:34:00,
2013-02-07 15:39:00,50.9,41.8,29.94,SW,230,0.0,0.0,71,0.00,,---,0.02,VWS V14.01,2013-02-07 23:39:00,
2013-02-07 15:44:00,50.8,41.8,29.93,WNW,297,1.0,0.0,71,0.00,,---,0.02,VWS V14.01,2013-02-07 23:44:00,
2013-02-07 15:49:00,50.7,41.3,29.93,West,265,0.0,0.0,70,0.00,,---,0.02,VWS V14.01,2013-02-07 23:49:00,
2013-02-07 15:54:00,50.6,41.6,29.93,SW,223,0.0,0.0,71,0.00,,---,0.02,VWS V14.01,2013-02-07 23:54:00,
2013-02-07 15:59:00,50.5,42.5,29.93,WNW,286,0.0,0.0,74,0.00,,---,0.02,VWS V14.01,2013-02-07 23:59:00,
2013-02-07 16:04:00,50.4,43.1,29.93,WNW,284,0.0,0.0,76,0.00,,---,0.02,VWS V14.01,2013-02-08 00:04:00,
2013-02-07 16:09:00,50.2,42.6,29.93,East,85,0.0,0.0,75,0.00,,---,0.02,VWS V14.01,2013-02-08 00:09:00,
2013-02-07 16:14:00,50.2,42.2,29.93,ESE,121,0.0,0.0,74,0.00,,---,0.02,VWS V14.01,2013-02-08 00:14:00,
2013-02-07 16:20:00,50.4,41.4,29.93,South,184,1.0,0.0,71,0.00,,---,0.02,VWS V14.01,2013-02-08 00:20:00,
2013-02-07 16:25:00,50.6,41.9,29.93,NNE,26,0.0,0.0,72,0.00,,---,0.02,VWS V14.01,2013-02-08 00:25:00,
2013-02-07 16:30:00,50.7,41.7,29.93,SE,124,0.0,0.0,71,0.00,,---,0.02,VWS V14.01,2013-02-08 00:30:00,
2013-02-07 16:35:00,50.6,41.6,29.92,WNW,286,1.0,0.0,71,0.00,,---,0.02,VWS V14.01,2013-02-08 00:35:00,
2013-02-07 16:40:00,50.5,41.8,29.92,SE,136,1.0,0.0,72,0.00,,---,0.02,VWS V14.01,2013-02-08 00:40:00,
2013-02-07 16:45:00,50.3,41.3,29.92,SW,215,1.0,0.0,71,0.00,,---,0.02,VWS V14.01,2013-02-08 00:45:00,
2013-02-07 16:50:00,50.1,41.4,29.92,SW,215,1.0,0.0,72,0.00,,---,0.02,VWS V14.01,2013-02-08 00:50:00,
2013-02-07 16:55:00,49.9,40.9,29.92,ESE,114,0.0,0.0,71,0.00,,---,0.02,VWS V14.01,2013-02-08 00:55:00,
2013-02-07 17:00:00,49.8,40.8,29.92,SW,214,0.0,0.0,71,0.00,,---,0.02,VWS V14.01,2013-02-08 01:00:00,
2013-02-07 17:05:00,49.8,41.5,29.92,SW,215,0.0,0.0,73,0.00,,---,0.02,VWS V14.01,2013-02-08 01:05:00,
2013-02-07 17:10:00,49.7,41.4,29.92,SSW,213,0.0,0.0,73,0.00,,---,0.02,VWS V14.01,2013-02-08 01:10:00,
2013-02-07 17:15:00,49.5,41.6,29.92,South,190,0.0,0.0,74,0.00,,---,0.02,VWS V14.01,2013-02-08 01:15:00,
2013-02-07 17:20:00,49.4,41.5,29.92,South,188,0.0,0.0,74,0.00,,---,0.02,VWS V14.01,2013-02-08 01:20:00,
2013-02-07 17:25:00,49.0,41.1,29.92,South,188,0.0,0.0,74,0.00,,---,0.02,VWS V14.01,2013-02-08 01:25:00,
2013-02-07 17:30:00,48.6,40.7,29.92,South,188,0.0,0.0,74,0.00,,---,0.02,VWS V14.01,2013-02-08 01:30:00,
2013-02-07 17:35:00,48.2,40.7,29.92,South,188,0.0,0.0,75,0.00,,---,0.02,VWS V14.01,2013-02-08 01:35:00,
2013-02-07 17:40:00,47.9,41.0,29.92,South,189,0.0,0.0,77,0.00,,---,0.02,VWS V14.01,2013-02-08 01:40:00,
2013-02-07 17:46:00,47.6,40.8,29.92,South,189,0.0,0.0,77,0.00,,---,0.02,VWS V14.01,2013-02-08 01:46:00,
2013-02-07 17:51:00,47.4,40.6,29.92,South,188,0.0,0.0,77,0.00,,---,0.02,VWS V14.01,2013-02-08 01:51:00,
2013-02-07 17:56:00,47.3,40.5,29.92,South,189,0.0,0.0,77,0.00,,---,0.02,VWS V14.01,2013-02-08 01:56:00,
2013-02-07 18:01:00,47.2,40.7,29.92,South,188,0.0,0.0,78,0.00,,---,0.02,VWS V14.01,2013-02-08 02:01:00,
2013-02-07 18:06:00,47.0,40.8,29.92,South,189,0.0,0.0,79,0.00,,---,0.02,VWS V14.01,2013-02-08 02:06:00,
2013-02-07 18:11:00,46.9,40.7,29.92,South,188,0.0,0.0,79,0.00,,---,0.02,VWS V14.01,2013-02-08 02:11:00,
2013-02-07 18:16:00,46.8,40.3,29.92,South,189,0.0,0.0,78,0.00,,---,0.02,VWS V14.01,2013-02-08 02:16:00,
2013-02-07 18:21:00,46.8,40.0,29.92,WNW,290,0.0,0.0,77,0.00,,---,0.02,VWS V14.01,2013-02-08 02:21:00,
2013-02-07 18:26:00,46.8,40.0,29.92,WSW,252,0.0,0.0,77,0.00,,---,0.02,VWS V14.01,2013-02-08 02:26:00,
2013-02-07 18:31:00,46.8,39.7,29.92,WNW,299,0.0,0.0,76,0.00,,---,0.02,VWS V14.01,2013-02-08 02:31:00,
2013-02-07 18:36:00,46.6,38.8,29.92,WNW,299,0.0,0.0,74,0.00,,---,0.02,VWS V14.01,2013-02-08 02:36:00,
2013-02-07 18:41:00,46.4,38.6,29.92,WNW,299,0.0,0.0,74,0.00,,---,0.02,VWS V14.01,2013-02-08 02:41:00,
2013-02-07 18:46:00,46.1,38.3,29.92,WNW,299,0.0,0.0,74,0.00,,---,0.02,VWS V14.01,2013-02-08 02:46:00,
2013-02-07 18:52:00,45.8,37.7,29.91,WNW,300,0.0,0.0,73,0.00,,---,0.02,VWS V14.01,2013-02-08 02:52:00,
2013-02-07 18:57:00,45.6,37.5,29.91,SSW,196,0.0,0.0,73,0.00,,---,0.02,VWS V14.01,2013-02-08 02:57:00,
2013-02-07 19:02:00,45.5,37.0,29.91,SSW,196,0.0,0.0,72,0.00,,---,0.02,VWS V14.01,2013-02-08 03:02:00,
2013-02-07 19:07:00,45.3,36.5,29.92,SSW,195,0.0,0.0,71,0.00,,---,0.02,VWS V14.01,2013-02-08 03:07:00,
2013-02-07 19:12:00,45.1,36.6,29.91,SSW,195,0.0,0.0,72,0.00,,---,0.02,VWS V14.01,2013-02-08 03:12:00,
2013-02-07 19:17:00,44.9,36.1,29.92,SSW,195,0.0,0.0,71,0.00,,---,0.02,VWS V14.01,2013-02-08 03:17:00,
2013-02-07 19:22:00,44.6,36.2,29.92,SSW,195,0.0,0.0,72,0.00,,---,0.02,VWS V14.01,2013-02-08 03:22:00,
2013-02-07 19:27:00,44.4,36.3,29.91,SSW,199,0.0,0.0,73,0.00,,---,0.02,VWS V14.01,2013-02-08 03:27:00,
2013-02-07 19:32:00,44.2,36.5,29.92,SSW,193,0.0,0.0,74,0.00,,---,0.02,VWS V14.01,2013-02-08 03:32:00,
2013-02-07 19:37:00,44.0,36.3,29.92,SSW,193,0.0,0.0,74,0.00,,---,0.02,VWS V14.01,2013-02-08 03:37:00,
2013-02-07 19:43:00,43.8,36.1,29.92,SSW,193,0.0,0.0,74,0.00,,---,0.02,VWS V14.01,2013-02-08 03:43:00,
2013-02-07 19:48:00,43.7,36.0,29.92,SSW,193,0.0,0.0,74,0.00,,---,0.02,VWS V14.01,2013-02-08 03:48:00,
2013-02-07 19:53:00,43.6,36.2,29.92,SSW,193,0.0,0.0,75,0.00,,---,0.02,VWS V14.01,2013-02-08 03:53:00,
2013-02-07 19:58:00,43.5,36.1,29.92,SSW,193,0.0,0.0,75,0.00,,---,0.02,VWS V14.01,2013-02-08 03:58:00,
2013-02-07 20:03:00,43.4,36.3,29.92,SSE,167,0.0,0.0,76,0.00,,---,0.02,VWS V14.01,2013-02-08 04:03:00,
2013-02-07 20:08:00,43.3,36.3,29.92,SSE,167,0.0,0.0,76,0.00,,---,0.02,VWS V14.01,2013-02-08 04:08:00,
2013-02-07 20:13:00,43.2,36.5,29.92,SSE,167,0.0,0.0,77,0.00,,---,0.02,VWS V14.01,2013-02-08 04:13:00,
2013-02-07 20:18:00,43.2,36.5,29.92,South,175,0.0,0.0,77,0.00,,---,0.02,VWS V14.01,2013-02-08 04:18:00,
2013-02-07 20:23:00,43.2,36.8,29.92,South,175,0.0,0.0,78,0.00,,---,0.02,VWS V14.01,2013-02-08 04:23:00,
2013-02-07 20:28:00,43.3,36.6,29.92,South,177,0.0,0.0,77,0.00,,---,0.02,VWS V14.01,2013-02-08 04:28:00,
2013-02-07 20:33:00,43.4,36.7,29.92,South,177,0.0,0.0,77,0.00,,---,0.02,VWS V14.01,2013-02-08 04:33:00,
2013-02-07 20:38:00,43.5,36.8,29.92,South,177,0.0,0.0,77,0.00,,---,0.02,VWS V14.01,2013-02-08 04:38:00,
2013-02-07 20:44:00,43.5,36.8,29.91,South,177,0.0,0.0,77,0.00,,---,0.02,VWS V14.01,2013-02-08 04:44:00,
2013-02-07 20:49:00,43.5,36.8,29.91,South,177,0.0,0.0,77,0.00,,---,0.02,VWS V14.01,2013-02-08 04:49:00,
2013-02-07 20:54:00,43.4,36.7,29.91,South,177,0.0,0.0,77,0.00,,---,0.02,VWS V14.01,2013-02-08 04:54:00,
2013-02-07 20:59:00,43.3,36.9,29.91,South,177,0.0,0.0,78,0.00,,---,0.02,VWS V14.01,2013-02-08 04:59:00,
2013-02-07 21:00:00,43.3,36.9,29.91,South,177,0.0,0.0,78,0.00,,---,0.02,VWS V14.01,2013-02-08 05:00:00,
2013-02-07 21:01:00,43.3,36.9,29.91,South,177,0.0,0.0,78,0.00,,---,0.02,VWS V14.01,2013-02-08 05:01:00,
2013-02-07 21:06:00,43.1,36.1,29.91,South,177,0.0,0.0,76,0.00,,---,0.02,VWS V14.01,2013-02-08 05:06:00,
2013-02-07 21:11:00,42.9,35.9,29.91,South,177,0.0,0.0,76,0.00,,---,0.02,VWS V14.01,2013-02-08 05:11:00,
2013-02-07 21:16:00,42.7,35.7,29.91,South,177,0.0,0.0,76,0.00,,---,0.02,VWS V14.01,2013-02-08 05:16:00,
2013-02-07 21:21:00,42.5,35.5,29.91,South,177,0.0,0.0,76,0.00,,---,0.02,VWS V14.01,2013-02-08 05:21:00,
2013-02-07 21:26:00,42.3,35.6,29.91,South,177,0.0,0.0,77,0.00,,---,0.02,VWS V14.01,2013-02-08 05:26:00,
2013-02-07 21:31:00,42.0,35.7,29.91,South,177,0.0,0.0,78,0.00,,---,0.02,VWS V14.01,2013-02-08 05:31:00,
2013-02-07 21:36:00,41.9,35.5,29.91,South,177,0.0,0.0,78,0.00,,---,0.02,VWS V14.01,2013-02-08 05:36:00,
2013-02-07 21:41:00,41.8,35.5,29.91,South,185,0.0,0.0,78,0.00,,---,0.02,VWS V14.01,2013-02-08 05:41:00,
2013-02-07 21:46:00,41.6,35.6,29.91,South,186,0.0,0.0,79,0.00,,---,0.02,VWS V14.01,2013-02-08 05:46:00,
2013-02-07 21:52:00,41.5,35.5,29.91,South,186,0.0,0.0,79,0.00,,---,0.02,VWS V14.01,2013-02-08 05:52:00,
2013-02-07 21:57:00,41.5,35.5,29.91,SW,219,0.0,0.0,79,0.00,,---,0.02,VWS V14.01,2013-02-08 05:57:00,
2013-02-07 22:02:00,41.4,35.4,29.91,SW,219,0.0,0.0,79,0.00,,---,0.02,VWS V14.01,2013-02-08 06:02:00,
2013-02-07 22:07:00,41.4,35.7,29.91,SW,219,0.0,0.0,80,0.00,,---,0.02,VWS V14.01,2013-02-08 06:07:00,
2013-02-07 22:12:00,41.4,35.4,29.91,SW,220,0.0,0.0,79,0.00,,---,0.02,VWS V14.01,2013-02-08 06:12:00,
2013-02-07 22:17:00,41.3,35.6,29.91,SW,219,0.0,0.0,80,0.00,,---,0.02,VWS V14.01,2013-02-08 06:17:00,
2013-02-07 22:22:00,41.1,35.4,29.91,SW,219,0.0,0.0,80,0.00,,---,0.02,VWS V14.01,2013-02-08 06:22:00,
2013-02-07 22:27:00,40.9,35.2,29.91,SW,219,0.0,0.0,80,0.00,,---,0.02,VWS V14.01,2013-02-08 06:27:00,
2013-02-07 22:32:00,40.8,35.4,29.91,SW,219,0.0,0.0,81,0.00,,---,0.02,VWS V14.01,2013-02-08 06:32:00,
2013-02-07 22:37:00,40.7,35.3,29.91,SW,219,0.0,0.0,81,0.00,,---,0.02,VWS V14.01,2013-02-08 06:37:00,
2013-02-07 22:42:00,40.7,35.3,29.90,SW,219,0.0,0.0,81,0.00,,---,0.02,VWS V14.01,2013-02-08 06:42:00,
2013-02-07 22:47:00,40.6,35.2,29.90,SW,219,0.0,0.0,81,0.00,,---,0.02,VWS V14.01,2013-02-08 06:47:00,
2013-02-07 22:52:00,40.6,35.5,29.90,SW,219,0.0,0.0,82,0.00,,---,0.02,VWS V14.01,2013-02-08 06:52:00,
2013-02-07 22:58:00,40.6,35.5,29.90,SW,219,0.0,0.0,82,0.00,,---,0.02,VWS V14.01,2013-02-08 06:58:00,
2013-02-07 23:03:00,40.6,35.5,29.90,SW,220,0.0,0.0,82,0.00,,---,0.02,VWS V14.01,2013-02-08 07:03:00,
2013-02-07 23:08:00,40.7,36.0,29.90,SSE,167,0.0,0.0,83,0.00,,---,0.02,VWS V14.01,2013-02-08 07:08:00,
2013-02-07 23:13:00,40.9,36.1,29.90,SSE,167,0.0,0.0,83,0.00,,---,0.02,VWS V14.01,2013-02-08 07:13:00,
2013-02-07 23:18:00,41.0,36.2,29.89,SSE,167,0.0,0.0,83,0.00,,---,0.02,VWS V14.01,2013-02-08 07:18:00,
2013-02-07 23:23:00,41.1,36.0,29.89,SSE,167,0.0,0.0,82,0.00,,---,0.02,VWS V14.01,2013-02-08 07:23:00,
2013-02-07 23:28:00,41.1,35.7,29.89,SSE,167,0.0,0.0,81,0.00,,---,0.02,VWS V14.01,2013-02-08 07:28:00,
2013-02-07 23:33:00,41.1,36.0,29.89,SSE,167,0.0,0.0,82,0.00,,---,0.02,VWS V14.01,2013-02-08 07:33:00,
2013-02-07 23:38:00,40.9,35.8,29.89,SSE,167,0.0,0.0,82,0.00,,---,0.02,VWS V14.01,2013-02-08 07:38:00,
2013-02-07 23:43:00,40.7,35.6,29.89,SSE,167,0.0,0.0,82,0.00,,---,0.02,VWS V14.01,2013-02-08 07:43:00,
2013-02-07 23:48:00,40.5,35.5,29.89,SSW,202,0.0,0.0,82,0.00,,---,0.02,VWS V14.01,2013-02-08 07:48:00,
2013-02-07 23:53:00,40.4,35.7,29.89,SSW,200,0.0,0.0,83,0.00,,---,0.02,VWS V14.01,2013-02-08 07:53:00,
2013-02-07 23:58:00,40.3,35.6,29.89,SSW,200,0.0,0.0,83,0.00,,---,0.02,VWS V14.01,2013-02-08 07:58:00,